Tracking 25734 objects as of 28-May-2022
HD Live streaming from Space Station
objects crossing your sky now

YAOGAN 7 DEB

Track YAOGAN 7 DEB now!
10-day predictions


NORAD ID: 38265
Int'l Code: 2009-069B
Perigee: 651.2 km
Apogee: 994.4 km
Inclination: 97.8 °
Period: 101.2 minutes
Semi major axis: 7193 km
RCS: 0.0013 m2 (small)
Launch date: December 9, 2009
Source: People's Republic of China (PRC)
Launch site: Jiuquan Satellite Launch Center, China (JSC)

Note: This is SATELLITE DEBRIS
aabbcc
Your satellite tracking list
Your tracking list is empty




NASA's NSSDC Master Catalog

Two Line Element Set (TLE):
1 38265U 09069B   22147.36217765  .00001487  00000-0  50735-3 0  9994
2 38265  97.7785 185.6499 0238550  32.6994 328.8701 14.22858958640749
Source of the keplerian elements: AFSPC